Spokane, WA

6:29 AM PDT on April 20, 2018 (GMT -0700)
Spokane International

Weather History for KGEG - November, 2013

Change the Weather History Date:

Saturday, November 9, 2013

  Actual Average Record
Temperature  
Mean Temperature 38 °F 38 °F  
Max Temperature 44 °F 45 °F 62 °F (1899)
Min Temperature 31 °F 32 °F 12 °F (1945)
Degree Days  
Heating Degree Days 27 27  
Month to date heating degree days 246 228  
Since 1 July heating degree days 1003 1016  
Cooling Degree Days 0 0  
Month to date cooling degree days 0 0  
Year to date cooling degree days 709 450  
Moisture  
Dew Point 34 °F    
Average Humidity 85    
Maximum Humidity 100    
Minimum Humidity 70    
Precipitation  
Precipitation T in 0.07 in 0.74 in (1973)
Month to date precipitation 1.09 0.61  
Year to date precipitation 10.21 12.57  
Snow  
Snow 0.00 in 0.20 in 5.30 in (1977)
Month to date snowfall 2.5 0.9  
Since 1 July snowfall 2.5 1.0  
Since 1 September snowfall 2.5 1.0  
Snow Depth 0.00 in    
Sea Level Pressure  
Sea Level Pressure 30.18 in    
Wind  
Wind Speed 6 mph (NE)    
Max Wind Speed 9 mph    
Max Gust Speed 12 mph    
Visibility 6 miles    
Events Fog , Rain    
T = Trace of Precipitation, MM = Missing Value Source: NWS Daily Summary

Daily Weather History Graph

Daily Weather History Graph

Search for Another Location

Airport or City:

Astronomy

Nov. 09, 2013 Rise Set
Actual Time 6:46 AM PST 4:20 PM PST
Civil Twilight 6:13 AM PST 4:53 PM PST
Nautical Twilight 5:36 AM PST 5:30 PM PST
Astronomical Twilight 5:00 AM PST 6:06 PM PST
Moon 12:21 PM PST (11/9) 11:02 PM PST (11/9)
Length of Visible Light 10h 39m
Length of Day
9h 33m
Waxing Crescent, 45% of the Moon is Illuminated
Nov 9
Waxing Crescent
Nov 9
First Quarter
Nov 17
Full
Nov 25
Last Quarter
Dec 2
New

Hourly Weather History & Observations

Time (PST) Temp. Windchill Dew Point Humidity Pressure Visibility Wind Dir Wind Speed Gust Speed Precip Events Conditions
12:53 AM 35.1 °F 31.0 °F 33.1 °F 92% 30.18 in 10.0 mi SSE 4.6 mph - N/A   Clear
1:53 AM 33.1 °F 30.0 °F 32.0 °F 96% 30.19 in 10.0 mi SE 3.5 mph - N/A   Clear
2:53 AM 32.0 °F - 30.0 °F 92% 30.20 in 5.0 mi Calm Calm - N/A   Clear
3:22 AM 32.0 °F 28.7 °F 30.2 °F 93% 30.16 in 9.0 mi NE 3.5 mph - N/A   Partly Cloudy
3:26 AM 32.0 °F 28.7 °F 28.4 °F 87% 30.16 in 1.5 mi NE 3.5 mph - N/A   Scattered Clouds
3:32 AM 32.0 °F 28.7 °F 30.2 °F 93% 30.16 in 0.2 mi ENE 3.5 mph - N/A Fog Fog
3:53 AM 30.9 °F 27.5 °F 30.9 °F 100% 30.20 in 0.2 mi NE 3.5 mph - N/A Fog Light Freezing Fog
4:53 AM 33.1 °F 28.7 °F 32.0 °F 96% 30.22 in 0.1 mi NE 4.6 mph - N/A Fog Fog
5:53 AM 32.0 °F 28.7 °F 30.9 °F 96% 30.22 in 0.1 mi NNE 3.5 mph - N/A Fog Fog
6:53 AM 32.0 °F 28.7 °F 30.9 °F 96% 30.22 in 0.5 mi ENE 3.5 mph - N/A Fog Fog
7:31 AM 32.0 °F 27.5 °F 30.2 °F 93% 30.18 in 0.5 mi NNE 4.6 mph - N/A   Overcast
7:53 AM 33.1 °F 27.7 °F 32.0 °F 96% 30.23 in 0.5 mi NE 5.8 mph - N/A Fog Fog
8:23 AM 33.8 °F 29.6 °F 32.0 °F 93% 30.18 in 0.2 mi ENE 4.6 mph - N/A Fog Fog
8:53 AM 34.0 °F 28.8 °F 33.1 °F 96% 30.23 in 0.5 mi ENE 5.8 mph - N/A   Overcast
9:02 AM 33.8 °F 27.7 °F 33.8 °F 100% 30.18 in 1.0 mi NE 6.9 mph - N/A   Mostly Cloudy
9:53 AM 35.1 °F 29.3 °F 33.1 °F 92% 30.24 in 1.0 mi NNE 6.9 mph - N/A   Mostly Cloudy
10:39 AM 35.6 °F 29.2 °F 33.8 °F 93% 30.17 in 6.0 mi NE 8.1 mph - N/A   Mostly Cloudy
10:53 AM 37.0 °F 31.0 °F 34.0 °F 89% 30.22 in 8.0 mi NE 8.1 mph - N/A   Mostly Cloudy
11:53 AM 41.0 °F 36.4 °F 35.1 °F 79% 30.19 in 10.0 mi NE 6.9 mph - N/A   Mostly Cloudy
12:53 PM 43.0 °F 38.8 °F 35.1 °F 74% 30.18 in 10.0 mi NE 6.9 mph - N/A   Mostly Cloudy
1:53 PM 43.0 °F 38.8 °F 36.0 °F 76% 30.17 in 10.0 mi NE 6.9 mph - N/A   Overcast
2:53 PM 44.1 °F 40.8 °F 36.0 °F 73% 30.16 in 10.0 mi NE 5.8 mph - N/A   Mostly Cloudy
3:53 PM 43.0 °F 39.5 °F 36.0 °F 76% 30.16 in 10.0 mi NE 5.8 mph - N/A   Overcast
4:53 PM 42.1 °F 39.2 °F 36.0 °F 79% 30.17 in 10.0 mi NNE 4.6 mph - 0.00 in Rain Light Rain
5:53 PM 41.0 °F 36.4 °F 37.0 °F 86% 30.17 in 10.0 mi NE 6.9 mph - 0.00 in Rain Light Rain
6:53 PM 41.0 °F 35.8 °F 37.0 °F 86% 30.15 in 10.0 mi NNE 8.1 mph - 0.00 in   Overcast
7:53 PM 39.9 °F 36.7 °F 36.0 °F 86% 30.16 in 10.0 mi NNE 4.6 mph - N/A   Overcast
8:53 PM 39.9 °F 36.7 °F 36.0 °F 86% 30.17 in 10.0 mi North 4.6 mph - 0.00 in Rain Light Rain
9:53 PM 39.0 °F 35.7 °F 37.0 °F 93% 30.17 in 10.0 mi NNE 4.6 mph - 0.00 in Rain Light Rain
10:53 PM 39.0 °F 32.8 °F 37.0 °F 93% 30.15 in 9.0 mi NE 9.2 mph - 0.00 in   Overcast
11:27 PM 39.2 °F 34.2 °F 37.4 °F 93% 30.11 in 8.0 mi NE 6.9 mph - N/A   Overcast
11:53 PM 39.0 °F 34.0 °F 37.0 °F 93% 30.15 in 8.0 mi NE 6.9 mph - N/A   Overcast